Flag for Germany Weather past 2 weeks in Bietigheim-Bissingen, Baden-Württemberg, Germany

Now
66 °F

Overcast.


Feels Like: 66 °F
Forecast: 42 / 57 °F
Wind: 6 mph from West

Location: Stuttgart-Echterdingen

Current Time: Sep 21, 2014 at 2:36:42 PM

Latest Report: Sep 21, 2014 at 2:00 PM


Visibility: 28 mi

Pressure: 29.96 "Hg

Humidity: 68%

Dew point: 55 °F

Location of Bietigheim-BissingenLocation

Historic Weather in Bietigheim-Bissingen — Graph

°F

Bietigheim-Bissingen temperature yesterday

Maximum temperature yesterday: 72 °F (at 1:00 PM)
Minimum temperature yesterday: 60 °F (at 3:00 AM)
Average temperature yesterday: 64 °F

Past Weeks' High & Low Weather Summary

 TemperatureHumidityPressure
High76 °F (Sep 6, 3:00 PM)99% (Sep 7, 7:00 AM)30.16 "Hg (Sep 7, 7:00 AM)
Low51 °F (Sep 17, 6:00 AM)51% (Sep 9, 4:00 PM)29.83 "Hg (Sep 17, 5:00 PM)
Average62 °F83%29.99 "Hg
* Reported Sep 6 1:00 PM — Sep 21 1:00 PM, Bietigheim-Bissingen, Weather by CustomWeather, © 2014

Note: Actual official high and low records may vary slightly from our data, if they occured in-between our weather recording intervals... More about our weather records

Advertising

Bietigheim-Bissingen weather history for previous 24 hours

 ConditionsComfort  
Time TempWeatherWind HumidityBarometerVisibility
1:00 PM
Sep 21
66 °FPartly sunny.7 mph69%29.97 "Hg19 mi
12:00 PM64 °FOvercast.3 mph83%29.97 "Hg19 mi
10:00 AM61 °FOvercast.2 mph91%29.98 "Hg16 mi
9:00 AM60 °FRain showers. Low clouds.5 mph93%29.98 "Hg6 mi
8:00 AM60 °FSprinkles. Overcast.1 mph94%29.98 "Hg12 mi
7:00 AM60 °FSprinkles. Low clouds.1 mph93%29.98 "Hg9 mi
6:00 AM59 °FLow clouds.1 mph94%29.98 "Hg10 mi
4:00 AM60 °FRain. Low clouds.2 mph95%29.99 "Hg6 mi
3:00 AM57 °FFog.3 mph97%30.01 "Hg12 mi
2:00 AM58 °FFog.1 mph92%30.01 "Hg16 mi
1:00 AM58 °FFog.1 mph94%30.01 "Hg28 mi
12:00 AM59 °FPassing clouds.1 mph94%30.01 "Hg37 mi
10:00 PM
Sep 20
61 °FPassing clouds.1 mph92%30.01 "Hg37 mi
9:00 PM64 °FPassing clouds.1 mph88%30.00 "Hg37 mi
8:00 PM66 °FPassing clouds.1 mph83%29.97 "Hg40 mi
3:00 PM68 °FThundershowers. Overcast.2 mph80%29.98 "Hg19 mi
2:00 PM70 °FSprinkles. Overcast.2 mph64%29.98 "Hg43 mi
Weather by CustomWeather, © 2014

See weather overviewHow to use our weather pages